Location: Paderno d�Adda
(45.6667°N, 9.4333°E)
Time: 16:50:46
(UTC+00:00)

USA 186 - Pass Details

Date: 19 September 2020
Orbit: 261 x 425 km, 96.9° (Epoch: 12 October)

Event Time Altitude Azimuth Distance (km) Brightness Sun altitude
Exits shadow 19:13:36 26° 198° (SSW) 844 3.2 -19.3°
Maximum altitude 19:15:05 49° 261° (W) 539 2.6 -19.5°
Drops below altitude 10° 19:18:14 10° 338° (NNW) 1,509 5.2 -20.0°
Sets 19:20:20 0° 344° (NNW) 2,394 6.2 -20.4°
